Location: Gollag?dem
(16.8053°N, 80.8024°E)
Time: 17:05:44
(UTC+00:00)

USA 81 - Pass Details

Date: 13 August 2020
Orbit: 786 x 788 km, 85.0° (Epoch: 16 September)

Event Time Altitude Azimuth Distance (km) Brightness Sun altitude
Rises 23:37:58 0° 1° (N) 3,274 7.5 -10.5°
Reaches altitude 10° 23:40:20 10° 4° (N) 2,344 6.8 -10.0°
Maximum altitude 23:45:34 71° 88° (E) 828 4.4 -8.8°
Drops below altitude 10° 23:50:48 10° 172° (S) 2,340 6.4 -7.6°
Sets 23:53:10 0° 174° (S) 3,267 7.1 -7.1°
